| time (UTC) | temp F | wind direction | speed MPH | gust MPH | rain 1hr in | rain 24hr in | rain mn in | humidity % | barometer mb |
| 20260506134816 | 58 | 49 | 2.0 | 7.0 | 0.00 | 0.00 | 0.00 | 50 | 1013.3 |
| 20260506134324 | 58 | 83 | 2.0 | 11.0 | 0.00 | 0.00 | 0.00 | 51 | 1013.4 |
| 20260506133823 | 58 | 141 | 3.0 | 11.0 | 0.00 | 0.00 | 0.00 | 51 | 1013.4 |
| 20260506133325 | 57 | 354 | 4.0 | 10.0 | 0.00 | 0.00 | 0.00 | 50 | 1013.4 |
| 20260506132831 | 58 | 80 | 3.0 | 9.0 | 0.00 | 0.00 | 0.00 | 51 | 1013.4 |
| 20260506132311 | 58 | 104 | 2.0 | 14.0 | 0.00 | 0.00 | 0.00 | 52 | 1013.4 |
| 20260506131811 | 58 | 98 | 4.0 | 14.0 | 0.00 | 0.00 | 0.00 | 52 | 1013.4 |
| 20260506131317 | 58 | 158 | 4.0 | 12.0 | 0.00 | 0.00 | 0.00 | 52 | 1013.5 |
| 20260506130837 | 59 | 115 | 2.0 | 9.0 | 0.00 | 0.00 | 0.00 | 53 | 1013.5 |
| 20260506130346 | 59 | 136 | 3.0 | 9.0 | 0.00 | 0.00 | 0.00 | 53 | 1013.6 |
| 20260506125824 | 58 | 135 | 3.0 | 7.0 | 0.00 | 0.00 | 0.00 | 54 | 1013.6 |
| 20260506125332 | 58 | 71 | 3.0 | 7.0 | 0.00 | 0.00 | 0.00 | 53 | 1013.5 |
| 20260506124811 | 58 | 136 | 3.0 | 8.0 | 0.00 | 0.00 | 0.00 | 53 | 1013.6 |
| 20260506124312 | 59 | 122 | 3.0 | 8.0 | 0.00 | 0.00 | 0.00 | 54 | 1013.6 |
| 20260506123820 | 58 | 32 | 4.0 | 7.0 | 0.00 | 0.00 | 0.00 | 54 | 1013.6 |
| 20260506123323 | 58 | 74 | 2.0 | 10.0 | 0.00 | 0.00 | 0.00 | 54 | 1013.7 |
| 20260506122849 | 58 | 86 | 4.0 | 10.0 | 0.00 | 0.00 | 0.00 | 54 | 1013.7 |
| 20260506122328 | 57 | 112 | 3.0 | 8.0 | 0.00 | 0.00 | 0.00 | 55 | 1013.8 |
| 20260506121836 | 57 | 110 | 2.0 | 10.0 | 0.00 | 0.00 | 0.00 | 57 | 1013.6 |
| 20260506121316 | 56 | 53 | 2.0 | 10.0 | 0.00 | 0.00 | 0.00 | 58 | 1013.7 |
| 20260506120817 | 56 | 117 | 3.0 | 10.0 | 0.00 | 0.00 | 0.00 | 58 | 1013.7 |
| 20260506120319 | 56 | 129 | 3.0 | 7.0 | 0.00 | 0.00 | 0.00 | 58 | 1013.8 |
| 20260506115825 | 56 | 37 | 3.0 | 7.0 | 0.00 | 0.00 | 0.00 | 58 | 1013.8 |
| 20260506115325 | 56 | 45 | 2.0 | 7.0 | 0.00 | 0.00 | 0.00 | 58 | 1014.0 |
| 20260506114833 | 56 | 82 | 2.0 | 6.0 | 0.00 | 0.00 | 0.00 | 58 | 1014.0 |
| 20260506114311 | 56 | 115 | 4.0 | 6.0 | 0.00 | 0.00 | 0.00 | 58 | 1013.9 |
| 20260506113811 | 55 | 86 | 2.0 | 10.0 | 0.00 | 0.00 | 0.00 | 58 | 1013.9 |
| 20260506113314 | 55 | 108 | 3.0 | 10.0 | 0.00 | 0.00 | 0.00 | 58 | 1014.0 |
| 20260506112828 | 55 | 78 | 2.0 | 10.0 | 0.00 | 0.00 | 0.00 | 58 | 1014.1 |
| 20260506112328 | 55 | 49 | 3.0 | 10.0 | 0.00 | 0.00 | 0.00 | 58 | 1014.1 |
| 20260506111836 | 55 | 87 | 3.0 | 10.0 | 0.00 | 0.00 | 0.00 | 59 | 1014.2 |
| 20260506110821 | 54 | 62 | 3.0 | 9.0 | 0.00 | 0.00 | 0.00 | 60 | 1014.2 |
| 20260506110322 | 54 | 86 | 2.0 | 9.0 | 0.00 | 0.00 | 0.00 | 60 | 1014.1 |
| 20260506105827 | 54 | 64 | 3.0 | 9.0 | 0.00 | 0.00 | 0.00 | 61 | 1014.2 |
| 20260506105327 | 53 | 66 | 2.0 | 9.0 | 0.00 | 0.00 | 0.00 | 62 | 1014.2 |
| 20260506104828 | 54 | 355 | 4.0 | 9.0 | 0.00 | 0.00 | 0.00 | 61 | 1014.2 |
| 20260506104316 | 54 | 123 | 4.0 | 10.0 | 0.00 | 0.00 | 0.00 | 62 | 1014.2 |
| 20260506103823 | 54 | 164 | 3.0 | 10.0 | 0.00 | 0.00 | 0.00 | 63 | 1014.2 |
| 20260506103326 | 53 | 122 | 3.0 | 9.0 | 0.00 | 0.00 | 0.00 | 63 | 1014.2 |
| 20260506102832 | 53 | 44 | 3.0 | 7.0 | 0.00 | 0.00 | 0.00 | 63 | 1014.2 |
| 20260506102312 | 52 | 130 | 3.0 | 8.0 | 0.00 | 0.00 | 0.00 | 65 | 1014.2 |
| 20260506101820 | 52 | 139 | 2.0 | 8.0 | 0.00 | 0.00 | 0.00 | 65 | 1014.2 |
| 20260506101321 | 52 | 68 | 2.0 | 7.0 | 0.00 | 0.00 | 0.00 | 64 | 1014.1 |
| 20260506100827 | 52 | 117 | 4.0 | 9.0 | 0.00 | 0.00 | 0.00 | 65 | 1014.1 |
| 20260506100336 | 52 | 166 | 2.0 | 9.0 | 0.00 | 0.00 | 0.00 | 64 | 1014.1 |
| 20260506095856 | 53 | 165 | 3.0 | 7.0 | 0.00 | 0.00 | 0.00 | 65 | 1014.1 |
| 20260506095318 | 52 | 113 | 2.0 | 6.0 | 0.00 | 0.00 | 0.00 | 66 | 1014.1 |
| 20260506094817 | 52 | 136 | 3.0 | 6.0 | 0.00 | 0.00 | 0.00 | 66 | 1014.1 |
| 20260506094317 | 52 | 102 | 3.0 | 6.0 | 0.00 | 0.00 | 0.00 | 66 | 1014.1 |
| 20260506093825 | 52 | 117 | 3.0 | 10.0 | 0.00 | 0.00 | 0.00 | 67 | 1014.2 |
| 20260506093326 | 51 | 119 | 3.0 | 11.0 | 0.00 | 0.00 | 0.00 | 68 | 1014.2 |
| 20260506092833 | 51 | 149 | 4.0 | 11.0 | 0.00 | 0.00 | 0.00 | 68 | 1014.2 |
| 20260506092313 | 51 | 117 | 3.0 | 6.0 | 0.00 | 0.00 | 0.00 | 69 | 1014.2 |
| 20260506091814 | 51 | 79 | 3.0 | 7.0 | 0.00 | 0.00 | 0.00 | 70 | 1014.2 |
| 20260506091341 | 51 | 124 | 3.0 | 7.0 | 0.00 | 0.00 | 0.00 | 70 | 1014.1 |
| 20260506090821 | 51 | 27 | 3.0 | 7.0 | 0.00 | 0.00 | 0.00 | 71 | 1014.2 |
| 20260506090327 | 50 | 182 | 2.0 | 8.0 | 0.00 | 0.00 | 0.00 | 72 | 1014.1 |